Weather History for KODX - July, 2013

Change the Weather History Date:

Saturday, July 13, 2013

  Actual Average Record
Temperature  
Mean Temperature 84 °F 74 °F  
Max Temperature 97 °F 88 °F - ()
Min Temperature 71 °F 61 °F - ()
Degree Days  
Heating Degree Days 0 0  
Month to date heating degree days 1 0  
Since 1 June heating degree days 48 37  
Since 1 July heating degree days 1 0  
Cooling Degree Days 19 10  
Month to date cooling degree days 140 117  
Year to date cooling degree days 353 320  
Since 1 June cooling degree days 306 279  
Growing Degree Days 34 (Base 50)    
Moisture  
Dew Point 69 °F    
Average Humidity 64    
Maximum Humidity 90    
Minimum Humidity 38    
Precipitation  
Precipitation 0.00 in 0.09 in - ()
Month to date precipitation 1.71 1.13  
Year to date precipitation 13.78 13.91  
Sea Level Pressure  
Sea Level Pressure 29.85 in    
Wind  
Wind Speed 7 mph (SE)    
Max Wind Speed 18 mph    
Max Gust Speed 25 mph    
Visibility 10 miles    
Events      
T = Trace of Precipitation, MM = Missing Value Source: NWS Daily Summary

Daily Weather History Graph

Daily Weather History Graph

Search for Another Location

Airport or City:

Trip Planner

Search our weather history database for the weather conditions in past years. The results will help you decide how hot, cold, wet, or windy it might be!

Date:

Astronomy

Jul. 13, 2013 Rise Set
Actual Time 6:13 AM CDT 9:09 PM CDT
Civil Twilight 5:40 AM CDT 9:42 PM CDT
Nautical Twilight 4:58 AM CDT 10:24 PM CDT
Astronomical Twilight 4:09 AM CDT 11:13 PM CDT
Moon 11:36 AM CDT (7/13) 11:45 PM CDT (7/13)
Length of Visible Light 16h 02m
Length of Day
14h 56m
Waxing Crescent, 26% of the Moon is Illuminated
Jul 13
Waxing Crescent
Jul 15
First Quarter
Jul 22
Full
Jul 29
Last Quarter
Aug 6
New

Hourly Weather History & Observations

Time (CDT) Temp. Heat Index Dew Point Humidity Pressure Visibility Wind Dir Wind Speed Gust Speed Precip Events Conditions
12:53 AM 80.1 °F 82.7 °F 68.0 °F 67% 29.85 in 10.0 mi SSE 5.8 mph - N/A   Clear
1:53 AM 78.1 °F - 68.0 °F 71% 29.86 in 10.0 mi SE 4.6 mph - N/A   Clear
2:53 AM 77.0 °F - 66.9 °F 71% 29.86 in 10.0 mi SE 4.6 mph - N/A   Clear
3:53 AM 77.0 °F - 66.9 °F 71% 29.86 in 10.0 mi SSE 6.9 mph - N/A   Clear
4:53 AM 72.0 °F - 68.0 °F 87% 29.86 in 10.0 mi SE 8.1 mph - N/A   Clear
5:53 AM 71.1 °F - 68.0 °F 90% 29.86 in 10.0 mi ESE 3.5 mph - N/A   Clear
6:53 AM 71.1 °F - 66.9 °F 87% 29.87 in 10.0 mi Calm Calm - N/A   Clear
7:53 AM 73.0 °F - 69.1 °F 87% 29.87 in 10.0 mi NNW 3.5 mph - N/A   Clear
8:53 AM 81.0 °F 83.8 °F 68.0 °F 65% 29.86 in 10.0 mi South 8.1 mph - N/A   Clear
9:53 AM 82.0 °F 84.9 °F 68.0 °F 62% 29.86 in 10.0 mi South 8.1 mph - N/A   Clear
10:53 AM 84.9 °F 88.8 °F 69.1 °F 59% 29.87 in 10.0 mi South 8.1 mph - N/A   Clear
11:53 AM 88.0 °F 91.4 °F 68.0 °F 51% 29.87 in 10.0 mi Variable 5.8 mph - N/A   Clear
12:53 PM 91.9 °F 97.4 °F 70.0 °F 48% 29.86 in 10.0 mi Variable 4.6 mph - N/A   Clear
1:53 PM 93.9 °F 99.1 °F 69.1 °F 44% 29.85 in 10.0 mi SSE 5.8 mph - N/A   Clear
2:53 PM 96.1 °F 99.9 °F 66.9 °F 38% 29.84 in 10.0 mi Variable 5.8 mph - N/A   Clear
3:53 PM 95.0 °F 101.3 °F 70.0 °F 44% 29.84 in 10.0 mi South 6.9 mph - N/A   Clear
4:53 PM 95.0 °F 100.7 °F 69.1 °F 43% 29.83 in 10.0 mi SE 5.8 mph - N/A   Clear
5:53 PM 97.0 °F 104.8 °F 71.1 °F 43% 29.81 in 10.0 mi SE 10.4 mph - N/A   Clear
6:53 PM 91.9 °F 101.3 °F 73.9 °F 55% 29.82 in 10.0 mi ESE 15.0 mph 21.9 mph N/A   Clear
7:53 PM 89.1 °F 96.0 °F 72.0 °F 57% 29.82 in 10.0 mi SE 15.0 mph 23.0 mph N/A   Clear
8:53 PM 87.1 °F 92.8 °F 71.1 °F 59% 29.83 in 10.0 mi ESE 9.2 mph - N/A   Clear
9:53 PM 84.9 °F 90.1 °F 71.1 °F 63% 29.84 in 10.0 mi SE 10.4 mph - N/A   Clear
10:53 PM 84.0 °F 87.0 °F 68.0 °F 58% 29.85 in 10.0 mi ESE 10.4 mph - N/A   Clear
11:53 PM 81.0 °F 83.8 °F 68.0 °F 65% 29.87 in 10.0 mi SE 8.1 mph - N/A   Clear